Wetterdaten: Dienstag, 25.03.2014
Datum Zeit Temperatur Luftfeuchte Luftdruck Regen Wind Richtung Richtung Taupunkt Windchill Windben
25.03.2014 00:00 -0,9 C 87 % 1012,0 hPa 0,0 l/m 0,0 km/h (0 Bft) SW 225 -2,8 C 16,1 C 0,0 km/h (0 Bft)
25.03.2014 00:05 -0,9 C 87 % 1011,7 hPa 0,0 l/m 0,0 km/h (0 Bft) SW 225 -2,8 C 16,1 C 0,0 km/h (0 Bft)
25.03.2014 00:10 -1,0 C 88 % 1011,7 hPa 0,0 l/m 0,0 km/h (0 Bft) SW 225 -2,7 C 16,1 C 0,0 km/h (0 Bft)
25.03.2014 00:15 -1,1 C 88 % 1011,7 hPa 0,0 l/m 0,0 km/h (0 Bft) SW 225 -2,8 C 16,1 C 0,0 km/h (0 Bft)
25.03.2014 00:20 -1,2 C 88 % 1011,7 hPa 0,0 l/m 0,0 km/h (0 Bft) SW 225 -2,9 C 16,1 C 0,0 km/h (0 Bft)
25.03.2014 00:25 -1,2 C 88 % 1011,7 hPa 0,0 l/m 0,0 km/h (0 Bft) SW 225 -2,9 C 16,1 C 0,0 km/h (0 Bft)
25.03.2014 00:30 -1,3 C 88 % 1011,7 hPa 0,0 l/m 0,0 km/h (0 Bft) SW 225 -3,0 C 16,1 C 0,0 km/h (0 Bft)
25.03.2014 00:35 -1,2 C 88 % 1011,7 hPa 0,0 l/m 0,0 km/h (0 Bft) SW 225 -2,9 C 16,1 C 0,0 km/h (0 Bft)
25.03.2014 00:40 -1,3 C 88 % 1011,7 hPa 0,0 l/m 0,0 km/h (0 Bft) SW 225 -3,0 C 16,1 C 0,0 km/h (0 Bft)
25.03.2014 00:45 -1,4 C 88 % 1011,8 hPa 0,0 l/m 0,0 km/h (0 Bft) SW 225 -3,1 C 16,1 C 0,0 km/h (0 Bft)
25.03.2014 00:50 -1,5 C 89 % 1011,8 hPa 0,0 l/m 0,0 km/h (0 Bft) SW 225 -3,1 C 16,1 C 0,0 km/h (0 Bft)
25.03.2014 00:55 -1,6 C 89 % 1011,8 hPa 0,0 l/m 0,0 km/h (0 Bft) SW 225 -3,2 C 16,1 C 0,0 km/h (0 Bft)
25.03.2014 01:00 -1,8 C 88 % 1011,8 hPa 0,0 l/m 0,0 km/h (0 Bft) SW 225 -3,5 C 16,1 C 0,0 km/h (0 Bft)
25.03.2014 01:05 -1,8 C 89 % 1011,6 hPa 0,0 l/m 0,0 km/h (0 Bft) SW 225 -3,4 C 16,1 C 0,0 km/h (0 Bft)
25.03.2014 01:10 -1,6 C 89 % 1011,6 hPa 0,0 l/m 0,0 km/h (0 Bft) SW 225 -3,2 C 16,1 C 0,0 km/h (0 Bft)
25.03.2014 01:15 -1,6 C 89 % 1011,6 hPa 0,0 l/m 0,0 km/h (0 Bft) SW 225 -3,2 C 16,1 C 0,0 km/h (0 Bft)
25.03.2014 01:20 -1,8 C 89 % 1011,6 hPa 0,0 l/m 0,0 km/h (0 Bft) SW 225 -3,4 C 16,1 C 0,0 km/h (0 Bft)
25.03.2014 01:25 -1,7 C 89 % 1011,6 hPa 0,0 l/m 0,0 km/h (0 Bft) SW 225 -3,3 C 16,1 C 0,0 km/h (0 Bft)
25.03.2014 01:30 -1,6 C 89 % 1011,6 hPa 0,0 l/m 0,0 km/h (0 Bft) SW 225 -3,2 C 16,1 C 0,0 km/h (0 Bft)
25.03.2014 01:35 -1,6 C 89 % 1011,6 hPa 0,0 l/m 0,0 km/h (0 Bft) SW 225 -3,2 C 16,1 C 0,0 km/h (0 Bft)
25.03.2014 01:40 -1,5 C 90 % 1011,6 hPa 0,0 l/m 0,0 km/h (0 Bft) SW 225 -2,9 C 16,1 C 0,0 km/h (0 Bft)
25.03.2014 01:45 -1,6 C 90 % 1011,6 hPa 0,0 l/m 0,0 km/h (0 Bft) SW 225 -3,0 C 16,1 C 0,0 km/h (0 Bft)
25.03.2014 01:50 -1,6 C 90 % 1011,6 hPa 0,0 l/m 0,0 km/h (0 Bft) SW 225 -3,0 C 16,1 C 0,0 km/h (0 Bft)
25.03.2014 01:55 -1,5 C 91 % 1011,6 hPa 0,0 l/m 0,0 km/h (0 Bft) SW 225 -2,8 C 16,1 C 0,0 km/h (0 Bft)
25.03.2014 02:00 -1,6 C 91 % 1011,6 hPa 0,0 l/m 0,0 km/h (0 Bft) SW 225 -2,9 C 16,1 C 0,0 km/h (0 Bft)
25.03.2014 02:05 -1,5 C 91 % 1011,4 hPa 0,0 l/m 0,0 km/h (0 Bft) SW 225 -2,8 C 16,1 C 0,0 km/h (0 Bft)
25.03.2014 02:10 -1,6 C 91 % 1011,4 hPa 0,0 l/m 0,0 km/h (0 Bft) SW 225 -2,9 C 16,1 C 0,0 km/h (0 Bft)
25.03.2014 02:15 -1,6 C 91 % 1011,4 hPa 0,0 l/m 0,0 km/h (0 Bft) SW 225 -2,9 C 16,1 C 0,0 km/h (0 Bft)
25.03.2014 02:20 -1,3 C 91 % 1011,4 hPa 0,0 l/m 0,0 km/h (0 Bft) SW 225 -2,6 C 16,1 C 0,0 km/h (0 Bft)
25.03.2014 02:25 -1,3 C 91 % 1011,1 hPa 0,0 l/m 0,0 km/h (0 Bft) SW 225 -2,6 C 16,1 C 0,0 km/h (0 Bft)
25.03.2014 02:30 -1,2 C 91 % 1011,1 hPa 0,0 l/m 0,0 km/h (0 Bft) SW 225 -2,5 C 16,1 C 0,0 km/h (0 Bft)
25.03.2014 02:35 -1,1 C 91 % 1011,1 hPa 0,0 l/m 0,0 km/h (0 Bft) SW 225 -2,4 C 16,1 C 0,0 km/h (0 Bft)
25.03.2014 02:40 -0,9 C 91 % 1011,1 hPa 0,0 l/m 0,0 km/h (0 Bft) SW 225 -2,2 C 16,1 C 0,0 km/h (0 Bft)
25.03.2014 02:45 -0,8 C 91 % 1011,1 hPa 0,0 l/m 0,0 km/h (0 Bft) SW 225 -2,1 C 16,1 C 0,0 km/h (0 Bft)
25.03.2014 02:50 -0,8 C 91 % 1011,1 hPa 0,0 l/m 0,0 km/h (0 Bft) SW 225 -2,1 C 16,1 C 0,0 km/h (0 Bft)
25.03.2014 02:55 -0,8 C 91 % 1011,1 hPa 0,0 l/m 0,0 km/h (0 Bft) SW 225 -2,1 C 16,1 C 0,0 km/h (0 Bft)
25.03.2014 03:00 -0,8 C 90 % 1011,1 hPa 0,0 l/m 0,0 km/h (0 Bft) SW 225 -2,2 C 16,1 C 0,0 km/h (0 Bft)
25.03.2014 03:05 -0,7 C 90 % 1010,9 hPa 0,0 l/m 0,0 km/h (0 Bft) SW 225 -2,1 C 16,1 C 0,0 km/h (0 Bft)
25.03.2014 03:10 -0,7 C 90 % 1010,9 hPa 0,0 l/m 0,0 km/h (0 Bft) SW 225 -2,1 C 16,1 C 0,0 km/h (0 Bft)
25.03.2014 03:15 -0,7 C 90 % 1010,9 hPa 0,0 l/m 0,0 km/h (0 Bft) SW 225 -2,1 C 16,1 C 0,0 km/h (0 Bft)
25.03.2014 03:20 -0,7 C 90 % 1010,9 hPa 0,0 l/m 0,0 km/h (0 Bft) SW 225 -2,1 C 16,1 C 0,0 km/h (0 Bft)
25.03.2014 03:25 -0,8 C 90 % 1010,8 hPa 0,0 l/m 0,0 km/h (0 Bft) SW 225 -2,2 C 16,1 C 0,0 km/h (0 Bft)
25.03.2014 03:30 -0,7 C 90 % 1010,8 hPa 0,0 l/m 0,0 km/h (0 Bft) SW 225 -2,1 C 16,1 C 0,0 km/h (0 Bft)
25.03.2014 03:35 -0,7 C 90 % 1010,8 hPa 0,0 l/m 0,0 km/h (0 Bft) SW 225 -2,1 C 16,1 C 0,0 km/h (0 Bft)
25.03.2014 03:40 -0,7 C 89 % 1010,8 hPa 0,0 l/m 0,0 km/h (0 Bft) SW 225 -2,3 C 16,1 C 0,0 km/h (0 Bft)
25.03.2014 03:45 -0,7 C 89 % 1010,8 hPa 0,0 l/m 0,0 km/h (0 Bft) SW 225 -2,3 C 16,1 C 0,0 km/h (0 Bft)
25.03.2014 03:50 -0,7 C 89 % 1010,8 hPa 0,0 l/m 0,0 km/h (0 Bft) SW 225 -2,3 C 16,1 C 0,0 km/h (0 Bft)
25.03.2014 03:55 -0,7 C 89 % 1010,8 hPa 0,0 l/m 0,0 km/h (0 Bft) SW 225 -2,3 C 16,1 C 0,0 km/h (0 Bft)
25.03.2014 04:00 -0,7 C 89 % 1010,8 hPa 0,0 l/m 0,0 km/h (0 Bft) SW 225 -2,3 C 16,1 C 0,0 km/h (0 Bft)
25.03.2014 04:05 -0,7 C 89 % 1010,8 hPa 0,0 l/m 0,0 km/h (0 Bft) SW 225 -2,3 C 16,1 C 0,0 km/h (0 Bft)
25.03.2014 04:10 -0,7 C 89 % 1010,8 hPa 0,0 l/m 0,0 km/h (0 Bft) SW 225 -2,3 C 16,1 C 0,0 km/h (0 Bft)
25.03.2014 04:15 -0,7 C 89 % 1010,8 hPa 0,0 l/m 0,0 km/h (0 Bft) SW 225 -2,3 C 16,1 C 0,0 km/h (0 Bft)
25.03.2014 04:20 -0,7 C 89 % 1010,8 hPa 0,0 l/m 0,0 km/h (0 Bft) SW 225 -2,3 C 16,1 C 0,0 km/h (0 Bft)
25.03.2014 04:25 -0,7 C 89 % 1010,5 hPa 0,0 l/m 0,0 km/h (0 Bft) SW 225 -2,3 C 16,1 C 0,0 km/h (0 Bft)
25.03.2014 04:30 -0,8 C 89 % 1010,5 hPa 0,0 l/m 0,0 km/h (0 Bft) SW 225 -2,4 C 16,1 C 0,0 km/h (0 Bft)
25.03.2014 04:35 -0,8 C 89 % 1010,5 hPa 0,0 l/m 0,0 km/h (0 Bft) SW 225 -2,4 C 16,1 C 0,0 km/h (0 Bft)
25.03.2014 04:38 -0,9 C 89 % 1010,5 hPa 0,0 l/m 0,0 km/h (0 Bft) SW 225 -2,5 C 16,1 C 0,0 km/h (0 Bft)
25.03.2014 04:40 -0,9 C 89 % 1010,5 hPa 0,0 l/m 0,0 km/h (0 Bft) SW 225 -2,5 C 16,1 C 0,0 km/h (0 Bft)
25.03.2014 04:45 -0,9 C 89 % 1010,6 hPa 0,0 l/m 0,0 km/h (0 Bft) SW 225 -2,5 C 16,1 C 0,0 km/h (0 Bft)
25.03.2014 04:50 -0,8 C 89 % 1010,6 hPa 0,0 l/m 0,0 km/h (0 Bft) SW 225 -2,4 C 16,1 C 0,0 km/h (0 Bft)
25.03.2014 04:55 -0,8 C 89 % 1010,6 hPa 0,0 l/m 0,0 km/h (0 Bft) SW 225 -2,4 C 16,1 C 0,0 km/h (0 Bft)
25.03.2014 05:00 -0,9 C 89 % 1010,6 hPa 0,0 l/m 0,0 km/h (0 Bft) SW 225 -2,5 C 16,1 C 0,0 km/h (0 Bft)
25.03.2014 05:05 -0,9 C 89 % 1010,6 hPa 0,0 l/m 0,0 km/h (0 Bft) SW 225 -2,5 C 16,1 C 0,0 km/h (0 Bft)
25.03.2014 05:10 -0,9 C 89 % 1010,6 hPa 0,0 l/m 0,0 km/h (0 Bft) SW 225 -2,5 C 16,1 C 0,0 km/h (0 Bft)
25.03.2014 05:15 -1,0 C 89 % 1010,6 hPa 0,0 l/m 0,0 km/h (0 Bft) SW 225 -2,6 C 16,1 C 0,0 km/h (0 Bft)
25.03.2014 05:20 -1,1 C 89 % 1010,6 hPa 0,0 l/m 0,0 km/h (0 Bft) SW 225 -2,7 C 16,1 C 0,0 km/h (0 Bft)
25.03.2014 05:25 -1,1 C 88 % 1010,6 hPa 0,0 l/m 0,0 km/h (0 Bft) SW 225 -2,8 C 16,1 C 0,0 km/h (0 Bft)
25.03.2014 05:30 -1,3 C 88 % 1010,6 hPa 0,0 l/m 0,0 km/h (0 Bft) SW 225 -3,0 C 16,1 C 0,0 km/h (0 Bft)
25.03.2014 05:35 -1,3 C 88 % 1010,6 hPa 0,0 l/m 0,0 km/h (0 Bft) SW 225 -3,0 C 16,1 C 0,0 km/h (0 Bft)
25.03.2014 05:40 -1,3 C 88 % 1010,6 hPa 0,0 l/m 0,0 km/h (0 Bft) SW 225 -3,0 C 16,1 C 0,0 km/h (0 Bft)
25.03.2014 05:45 -1,3 C 89 % 1010,3 hPa 0,0 l/m 0,0 km/h (0 Bft) SW 225 -2,9 C 16,1 C 0,0 km/h (0 Bft)
25.03.2014 05:50 -1,2 C 89 % 1010,3 hPa 0,0 l/m 0,0 km/h (0 Bft) SW 225 -2,8 C 16,1 C 0,0 km/h (0 Bft)
25.03.2014 05:55 -1,2 C 89 % 1010,3 hPa 0,0 l/m 0,0 km/h (0 Bft) SW 225 -2,8 C 16,1 C 0,0 km/h (0 Bft)
25.03.2014 06:00 -1,3 C 89 % 1010,3 hPa 0,0 l/m 0,0 km/h (0 Bft) SW 225 -2,9 C 16,1 C 0,0 km/h (0 Bft)
25.03.2014 06:05 -1,3 C 89 % 1010,3 hPa 0,0 l/m 0,0 km/h (0 Bft) SW 225 -2,9 C 16,1 C 0,0 km/h (0 Bft)
25.03.2014 06:10 -1,2 C 89 % 1010,3 hPa 0,0 l/m 0,0 km/h (0 Bft) SW 225 -2,8 C 16,1 C 0,0 km/h (0 Bft)
25.03.2014 06:15 -1,1 C 89 % 1010,3 hPa 0,0 l/m 0,0 km/h (0 Bft) SW 225 -2,7 C 16,1 C 0,0 km/h (0 Bft)
25.03.2014 06:20 -1,1 C 89 % 1010,3 hPa 0,0 l/m 0,0 km/h (0 Bft) SW 225 -2,7 C 16,1 C 0,0 km/h (0 Bft)
25.03.2014 06:25 -1,1 C 89 % 1010,3 hPa 0,0 l/m 0,0 km/h (0 Bft) SW 225 -2,7 C 16,1 C 0,0 km/h (0 Bft)
25.03.2014 06:30 -1,0 C 89 % 1010,3 hPa 0,0 l/m 0,0 km/h (0 Bft) SW 225 -2,6 C 16,1 C 0,0 km/h (0 Bft)
25.03.2014 06:35 -1,0 C 89 % 1010,3 hPa 0,0 l/m 0,0 km/h (0 Bft) SW 225 -2,6 C 16,1 C 0,0 km/h (0 Bft)
25.03.2014 06:40 -1,0 C 89 % 1010,3 hPa 0,0 l/m 0,0 km/h (0 Bft) SW 225 -2,6 C 16,1 C 0,0 km/h (0 Bft)
25.03.2014 06:45 -0,9 C 89 % 1010,3 hPa 0,0 l/m 0,0 km/h (0 Bft) SW 225 -2,5 C 16,1 C 0,0 km/h (0 Bft)
25.03.2014 06:50 -0,9 C 89 % 1010,3 hPa 0,0 l/m 0,0 km/h (0 Bft) SW 225 -2,5 C 16,1 C 0,0 km/h (0 Bft)
25.03.2014 06:55 -1,0 C 89 % 1010,3 hPa 0,0 l/m 0,0 km/h (0 Bft) SW 225 -2,6 C 16,1 C 0,0 km/h (0 Bft)
25.03.2014 07:00 -0,8 C 89 % 1010,3 hPa 0,0 l/m 0,0 km/h (0 Bft) SW 225 -2,4 C 16,1 C 0,0 km/h (0 Bft)
25.03.2014 07:05 -0,7 C 89 % 1010,8 hPa 0,0 l/m 0,0 km/h (0 Bft) SW 225 -2,3 C 16,1 C 0,0 km/h (0 Bft)
25.03.2014 07:10 -0,5 C 89 % 1010,8 hPa 0,0 l/m 0,0 km/h (0 Bft) SW 225 -2,1 C 16,1 C 0,0 km/h (0 Bft)
25.03.2014 07:15 -0,4 C 89 % 1010,8 hPa 0,0 l/m 0,0 km/h (0 Bft) SW 225 -2,0 C 16,1 C 0,0 km/h (0 Bft)
25.03.2014 07:20 -0,2 C 89 % 1010,8 hPa 0,0 l/m 0,0 km/h (0 Bft) SW 225 -1,8 C 16,1 C 0,0 km/h (0 Bft)
25.03.2014 07:25 0,0 C 89 % 1010,2 hPa 0,0 l/m 0,0 km/h (0 Bft) SW 225 -1,6 C 16,1 C 0,0 km/h (0 Bft)
25.03.2014 07:30 0,4 C 89 % 1010,2 hPa 0,0 l/m 0,0 km/h (0 Bft) SW 225 -1,2 C 16,1 C 0,0 km/h (0 Bft)
25.03.2014 07:35 0,6 C 89 % 1010,2 hPa 0,0 l/m 0,0 km/h (0 Bft) SW 225 -1,0 C 16,1 C 0,0 km/h (0 Bft)
25.03.2014 07:40 0,9 C 88 % 1010,2 hPa 0,0 l/m 0,0 km/h (0 Bft) SW 225 -0,9 C 16,1 C 0,0 km/h (0 Bft)
25.03.2014 07:45 1,2 C 88 % 1010,2 hPa 0,0 l/m 0,0 km/h (0 Bft) SW 225 -0,6 C 16,1 C 0,0 km/h (0 Bft)
25.03.2014 07:50 1,8 C 88 % 1010,2 hPa 0,0 l/m 0,0 km/h (0 Bft) SW 225 0,0 C 16,1 C 0,0 km/h (0 Bft)
25.03.2014 07:55 2,0 C 87 % 1010,2 hPa 0,0 l/m 0,0 km/h (0 Bft) SW 225 0,1 C 16,1 C 0,0 km/h (0 Bft)
25.03.2014 08:00 2,6 C 86 % 1010,2 hPa 0,0 l/m 0,0 km/h (0 Bft) SW 225 0,5 C 16,1 C 0,0 km/h (0 Bft)
25.03.2014 08:05 3,1 C 85 % 1010,1 hPa 0,0 l/m 0,0 km/h (0 Bft) SW 225 0,8 C 16,1 C 0,0 km/h (0 Bft)
25.03.2014 08:10 3,8 C 84 % 1010,1 hPa 0,0 l/m 0,0 km/h (0 Bft) SW 225 1,4 C 16,1 C 0,0 km/h (0 Bft)
25.03.2014 08:15 4,0 C 83 % 1010,1 hPa 0,0 l/m 0,0 km/h (0 Bft) SW 225 1,4 C 16,1 C 0,0 km/h (0 Bft)
25.03.2014 08:20 4,2 C 81 % 1010,1 hPa 0,0 l/m 0,0 km/h (0 Bft) SW 225 1,2 C 16,1 C 0,0 km/h (0 Bft)
25.03.2014 08:25 4,0 C 79 % 1010,2 hPa 0,0 l/m 0,0 km/h (0 Bft) SW 225 0,7 C 16,1 C 0,0 km/h (0 Bft)
25.03.2014 08:30 5,1 C 74 % 1010,2 hPa 0,0 l/m 0,0 km/h (0 Bft) SW 225 0,9 C 16,1 C 0,0 km/h (0 Bft)
25.03.2014 08:35 7,4 C 73 % 1010,2 hPa 0,0 l/m 0,0 km/h (0 Bft) SW 225 2,9 C 16,1 C 0,0 km/h (0 Bft)
25.03.2014 08:40 7,3 C 65 % 1010,2 hPa 0,0 l/m 0,0 km/h (0 Bft) SW 225 1,2 C 16,1 C 0,0 km/h (0 Bft)
25.03.2014 08:45 9,1 C 62 % 1010,7 hPa 0,0 l/m 0,0 km/h (0 Bft) SW 225 2,2 C 16,1 C 0,0 km/h (0 Bft)
25.03.2014 08:50 7,5 C 58 % 1010,7 hPa 0,0 l/m 0,0 km/h (0 Bft) SW 225 -0,2 C 16,1 C 0,0 km/h (0 Bft)
25.03.2014 08:55 8,5 C 56 % 1010,7 hPa 0,0 l/m 0,0 km/h (0 Bft) SW 225 0,2 C 16,1 C 0,0 km/h (0 Bft)
25.03.2014 09:00 5,9 C 56 % 1010,7 hPa 0,0 l/m 0,0 km/h (0 Bft) SW 225 -2,2 C 16,1 C 0,0 km/h (0 Bft)
25.03.2014 09:05 5,6 C 58 % 1010,7 hPa 0,0 l/m 0,0 km/h (0 Bft) SW 225 -2,0 C 16,1 C 0,0 km/h (0 Bft)
25.03.2014 09:10 4,8 C 59 % 1010,7 hPa 0,0 l/m 0,0 km/h (0 Bft) SW 225 -2,5 C 16,1 C 0,0 km/h (0 Bft)
25.03.2014 09:15 4,1 C 61 % 1010,7 hPa 0,0 l/m 0,0 km/h (0 Bft) SW 225 -2,7 C 16,1 C 0,0 km/h (0 Bft)
25.03.2014 09:20 3,8 C 62 % 1010,7 hPa 0,0 l/m 0,0 km/h (0 Bft) SW 225 -2,8 C 16,1 C 0,0 km/h (0 Bft)
25.03.2014 09:25 3,5 C 63 % 1010,2 hPa 0,0 l/m 0,0 km/h (0 Bft) SW 225 -2,9 C 16,1 C 0,0 km/h (0 Bft)
25.03.2014 09:30 3,0 C 65 % 1010,2 hPa 0,0 l/m 0,0 km/h (0 Bft) SW 225 -2,9 C 16,1 C 0,0 km/h (0 Bft)
25.03.2014 09:35 3,2 C 66 % 1010,2 hPa 0,0 l/m 0,0 km/h (0 Bft) SW 225 -2,5 C 16,1 C 0,0 km/h (0 Bft)
25.03.2014 09:38 2,9 C 67 % 1010,2 hPa 0,0 l/m 0,0 km/h (0 Bft) SW 225 -2,6 C 16,1 C 0,0 km/h (0 Bft)
25.03.2014 09:40 2,9 C 67 % 1010,2 hPa 0,0 l/m 0,0 km/h (0 Bft) SW 225 -2,6 C 16,1 C 0,0 km/h (0 Bft)
25.03.2014 09:45 2,5 C 67 % 1009,9 hPa 0,0 l/m 0,0 km/h (0 Bft) SW 225 -3,0 C 16,1 C 0,0 km/h (0 Bft)
25.03.2014 09:50 3,0 C 66 % 1009,9 hPa 0,0 l/m 0,0 km/h (0 Bft) SW 225 -2,7 C 16,1 C 0,0 km/h (0 Bft)
25.03.2014 09:55 3,4 C 66 % 1009,9 hPa 0,0 l/m 0,0 km/h (0 Bft) SW 225 -2,3 C 16,1 C 0,0 km/h (0 Bft)
25.03.2014 10:00 3,2 C 67 % 1009,9 hPa 0,0 l/m 0,0 km/h (0 Bft) SW 225 -2,3 C 16,1 C 0,0 km/h (0 Bft)
25.03.2014 10:05 3,2 C 68 % 1009,8 hPa 0,0 l/m 0,0 km/h (0 Bft) SW 225 -2,1 C 16,1 C 0,0 km/h (0 Bft)
25.03.2014 10:10 3,0 C 69 % 1009,8 hPa 0,0 l/m 0,0 km/h (0 Bft) SW 225 -2,1 C 16,1 C 0,0 km/h (0 Bft)
25.03.2014 10:15 3,4 C 68 % 1009,8 hPa 0,0 l/m 0,0 km/h (0 Bft) SW 225 -1,9 C 16,1 C 0,0 km/h (0 Bft)
25.03.2014 10:20 4,3 C 67 % 1009,8 hPa 0,0 l/m 0,0 km/h (0 Bft) SW 225 -1,3 C 16,1 C 0,0 km/h (0 Bft)
25.03.2014 10:25 4,6 C 64 % 1010,2 hPa 0,0 l/m 0,0 km/h (0 Bft) SW 225 -1,6 C 16,1 C 0,0 km/h (0 Bft)
25.03.2014 10:30 3,9 C 64 % 1010,2 hPa 0,0 l/m 0,0 km/h (0 Bft) SW 225 -2,3 C 16,1 C 0,0 km/h (0 Bft)
25.03.2014 10:35 4,1 C 65 % 1010,2 hPa 0,0 l/m 0,0 km/h (0 Bft) SW 225 -1,9 C 16,1 C 0,0 km/h (0 Bft)
25.03.2014 10:40 4,6 C 63 % 1010,2 hPa 0,0 l/m 0,0 km/h (0 Bft) SW 225 -1,8 C 16,1 C 0,0 km/h (0 Bft)
25.03.2014 10:45 5,5 C 63 % 1010,3 hPa 0,0 l/m 0,0 km/h (0 Bft) SW 225 -1,0 C 16,1 C 0,0 km/h (0 Bft)
25.03.2014 10:50 5,2 C 59 % 1010,3 hPa 0,0 l/m 0,0 km/h (0 Bft) SW 225 -2,1 C 16,1 C 0,0 km/h (0 Bft)
25.03.2014 10:55 4,7 C 59 % 1010,3 hPa 0,0 l/m 0,0 km/h (0 Bft) SW 225 -2,6 C 16,1 C 0,0 km/h (0 Bft)
25.03.2014 11:00 6,5 C 56 % 1010,3 hPa 0,0 l/m 0,0 km/h (0 Bft) SW 225 -1,6 C 16,1 C 0,0 km/h (0 Bft)
25.03.2014 11:05 7,6 C 55 % 1009,9 hPa 0,0 l/m 0,0 km/h (0 Bft) SW 225 -0,9 C 16,1 C 0,0 km/h (0 Bft)
25.03.2014 11:10 8,5 C 53 % 1009,9 hPa 0,0 l/m 0,0 km/h (0 Bft) SW 225 -0,5 C 16,1 C 0,0 km/h (0 Bft)
25.03.2014 11:15 7,2 C 52 % 1009,9 hPa 0,0 l/m 0,0 km/h (0 Bft) SW 225 -2,0 C 16,1 C 0,0 km/h (0 Bft)
25.03.2014 11:20 5,4 C 56 % 1009,9 hPa 0,0 l/m 0,0 km/h (0 Bft) SW 225 -2,7 C 16,1 C 0,0 km/h (0 Bft)
25.03.2014 11:25 5,5 C 57 % 1010,4 hPa 0,0 l/m 0,0 km/h (0 Bft) SW 225 -2,3 C 16,1 C 0,0 km/h (0 Bft)
25.03.2014 11:30 6,0 C 55 % 1010,4 hPa 0,0 l/m 0,0 km/h (0 Bft) SW 225 -2,3 C 16,1 C 0,0 km/h (0 Bft)
25.03.2014 11:35 5,8 C 56 % 1010,4 hPa 0,0 l/m 0,0 km/h (0 Bft) SW 225 -2,3 C 16,1 C 0,0 km/h (0 Bft)
25.03.2014 11:40 5,7 C 56 % 1010,4 hPa 0,0 l/m 0,0 km/h (0 Bft) SW 225 -2,4 C 16,1 C 0,0 km/h (0 Bft)
25.03.2014 11:45 5,7 C 57 % 1010,2 hPa 0,0 l/m 0,0 km/h (0 Bft) SW 225 -2,1 C 16,1 C 0,0 km/h (0 Bft)
25.03.2014 11:50 6,1 C 55 % 1010,2 hPa 0,0 l/m 0,0 km/h (0 Bft) SW 225 -2,2 C 16,1 C 0,0 km/h (0 Bft)
25.03.2014 11:55 6,9 C 54 % 1010,2 hPa 0,0 l/m 0,0 km/h (0 Bft) SW 225 -1,8 C 16,1 C 0,0 km/h (0 Bft)
25.03.2014 12:00 7,8 C 50 % 1010,2 hPa 0,0 l/m 0,0 km/h (0 Bft) SW 225 -2,0 C 16,1 C 0,0 km/h (0 Bft)
25.03.2014 12:05 7,5 C 51 % 1010,1 hPa 0,0 l/m 0,0 km/h (0 Bft) SW 225 -2,0 C 16,1 C 0,0 km/h (0 Bft)
25.03.2014 12:10 7,3 C 54 % 1010,1 hPa 0,0 l/m 0,0 km/h (0 Bft) SW 225 -1,4 C 16,1 C 0,0 km/h (0 Bft)
25.03.2014 12:15 7,4 C 54 % 1010,1 hPa 0,0 l/m 0,0 km/h (0 Bft) SW 225 -1,3 C 16,1 C 0,0 km/h (0 Bft)
25.03.2014 12:20 6,0 C 53 % 1010,1 hPa 0,0 l/m 0,0 km/h (0 Bft) SW 225 -2,8 C 16,1 C 0,0 km/h (0 Bft)
25.03.2014 12:25 6,1 C 54 % 1009,9 hPa 0,0 l/m 0,0 km/h (0 Bft) SW 225 -2,5 C 16,1 C 0,0 km/h (0 Bft)
25.03.2014 12:30 6,4 C 54 % 1009,9 hPa 0,0 l/m 0,0 km/h (0 Bft) SW 225 -2,2 C 16,1 C 0,0 km/h (0 Bft)
25.03.2014 12:35 5,8 C 56 % 1009,9 hPa 0,0 l/m 0,0 km/h (0 Bft) SW 225 -2,3 C 16,1 C 0,0 km/h (0 Bft)
25.03.2014 12:40 6,0 C 56 % 1009,9 hPa 0,0 l/m 0,0 km/h (0 Bft) SW 225 -2,1 C 16,1 C 0,0 km/h (0 Bft)
25.03.2014 12:45 7,4 C 53 % 1009,8 hPa 0,0 l/m 0,0 km/h (0 Bft) SW 225 -1,5 C 16,1 C 0,0 km/h (0 Bft)
25.03.2014 12:50 9,7 C 48 % 1009,8 hPa 0,0 l/m 0,0 km/h (0 Bft) SW 225 -0,8 C 16,1 C 0,0 km/h (0 Bft)
25.03.2014 12:55 8,8 C 48 % 1009,8 hPa 0,0 l/m 0,0 km/h (0 Bft) SW 225 -1,6 C 16,1 C 0,0 km/h (0 Bft)
25.03.2014 13:00 6,9 C 50 % 1009,8 hPa 0,0 l/m 0,0 km/h (0 Bft) SW 225 -2,8 C 16,1 C 0,0 km/h (0 Bft)
25.03.2014 13:05 5,5 C 55 % 1010,1 hPa 0,0 l/m 0,0 km/h (0 Bft) SW 225 -2,8 C 16,1 C 0,0 km/h (0 Bft)
25.03.2014 13:10 5,7 C 57 % 1010,1 hPa 0,0 l/m 0,0 km/h (0 Bft) SW 225 -2,1 C 16,1 C 0,0 km/h (0 Bft)
25.03.2014 13:15 5,1 C 57 % 1010,1 hPa 0,0 l/m 0,0 km/h (0 Bft) SW 225 -2,7 C 16,1 C 0,0 km/h (0 Bft)
25.03.2014 13:20 5,0 C 57 % 1010,1 hPa 0,0 l/m 0,0 km/h (0 Bft) SW 225 -2,8 C 16,1 C 0,0 km/h (0 Bft)
25.03.2014 13:25 4,8 C 56 % 1010,2 hPa 0,0 l/m 0,0 km/h (0 Bft) SW 225 -3,2 C 16,1 C 0,0 km/h (0 Bft)
25.03.2014 13:30 5,5 C 54 % 1010,2 hPa 0,0 l/m 0,0 km/h (0 Bft) SW 225 -3,1 C 16,1 C 0,0 km/h (0 Bft)
25.03.2014 13:35 5,6 C 52 % 1010,2 hPa 0,0 l/m 0,0 km/h (0 Bft) SW 225 -3,5 C 16,1 C 0,0 km/h (0 Bft)
25.03.2014 13:40 7,0 C 49 % 1010,2 hPa 0,0 l/m 0,0 km/h (0 Bft) SW 225 -3,0 C 16,1 C 0,0 km/h (0 Bft)
25.03.2014 13:45 7,5 C 49 % 1010,2 hPa 0,0 l/m 0,0 km/h (0 Bft) SW 225 -2,5 C 16,1 C 0,0 km/h (0 Bft)
25.03.2014 13:50 8,6 C 47 % 1010,2 hPa 0,0 l/m 0,0 km/h (0 Bft) SW 225 -2,1 C 16,1 C 0,0 km/h (0 Bft)
25.03.2014 13:55 9,3 C 45 % 1010,2 hPa 0,0 l/m 0,0 km/h (0 Bft) SW 225 -2,0 C 16,1 C 0,0 km/h (0 Bft)
25.03.2014 14:00 6,6 C 48 % 1010,2 hPa 0,0 l/m 0,0 km/h (0 Bft) SW 225 -3,6 C 16,1 C 0,0 km/h (0 Bft)
25.03.2014 14:05 6,2 C 49 % 1009,4 hPa 0,0 l/m 0,0 km/h (0 Bft) SW 225 -3,7 C 16,1 C 0,0 km/h (0 Bft)
25.03.2014 14:10 6,3 C 50 % 1009,4 hPa 0,0 l/m 0,0 km/h (0 Bft) SW 225 -3,3 C 16,1 C 0,0 km/h (0 Bft)
25.03.2014 14:15 5,5 C 51 % 1009,4 hPa 0,0 l/m 0,0 km/h (0 Bft) SW 225 -3,8 C 16,1 C 0,0 km/h (0 Bft)
25.03.2014 14:20 5,6 C 51 % 1009,4 hPa 0,0 l/m 0,0 km/h (0 Bft) SW 225 -3,7 C 16,1 C 0,0 km/h (0 Bft)
25.03.2014 14:25 5,6 C 53 % 1009,0 hPa 0,0 l/m 0,0 km/h (0 Bft) SW 225 -3,2 C 16,1 C 0,0 km/h (0 Bft)
25.03.2014 14:30 5,1 C 55 % 1009,0 hPa 0,0 l/m 0,0 km/h (0 Bft) SW 225 -3,2 C 16,1 C 0,0 km/h (0 Bft)
25.03.2014 14:35 4,8 C 56 % 1009,0 hPa 0,0 l/m 0,0 km/h (0 Bft) SW 225 -3,2 C 16,1 C 0,0 km/h (0 Bft)
25.03.2014 14:38 4,7 C 55 % 1009,0 hPa 0,0 l/m 0,0 km/h (0 Bft) SW 225 -3,6 C 16,1 C 0,0 km/h (0 Bft)
25.03.2014 14:40 4,7 C 55 % 1009,0 hPa 0,0 l/m 0,0 km/h (0 Bft) SW 225 -3,6 C 16,1 C 0,0 km/h (0 Bft)
25.03.2014 14:45 5,2 C 57 % 1008,2 hPa 0,0 l/m 0,0 km/h (0 Bft) SW 225 -2,6 C 16,1 C 0,0 km/h (0 Bft)
25.03.2014 14:50 6,4 C 51 % 1008,2 hPa 0,0 l/m 0,0 km/h (0 Bft) SW 225 -3,0 C 16,1 C 0,0 km/h (0 Bft)
25.03.2014 14:55 6,6 C 50 % 1008,2 hPa 0,0 l/m 0,0 km/h (0 Bft) SW 225 -3,1 C 16,1 C 0,0 km/h (0 Bft)
25.03.2014 15:00 7,0 C 48 % 1008,2 hPa 0,0 l/m 0,0 km/h (0 Bft) SW 225 -3,2 C 16,1 C 0,0 km/h (0 Bft)
25.03.2014 15:05 6,9 C 48 % 1008,6 hPa 0,0 l/m 0,0 km/h (0 Bft) SW 225 -3,3 C 16,1 C 0,0 km/h (0 Bft)
25.03.2014 15:10 6,5 C 47 % 1008,6 hPa 0,0 l/m 0,0 km/h (0 Bft) SW 225 -4,0 C 16,1 C 0,0 km/h (0 Bft)
25.03.2014 15:15 7,5 C 48 % 1008,6 hPa 0,0 l/m 0,0 km/h (0 Bft) SW 225 -2,8 C 16,1 C 0,0 km/h (0 Bft)
25.03.2014 15:20 9,2 C 48 % 1008,6 hPa 0,0 l/m 0,0 km/h (0 Bft) SW 225 -1,2 C 16,1 C 0,0 km/h (0 Bft)
25.03.2014 15:25 9,1 C 47 % 1008,1 hPa 0,0 l/m 0,0 km/h (0 Bft) SW 225 -1,6 C 16,1 C 0,0 km/h (0 Bft)
25.03.2014 15:30 8,0 C 46 % 1008,1 hPa 0,0 l/m 0,0 km/h (0 Bft) SW 225 -2,9 C 16,1 C 0,0 km/h (0 Bft)
25.03.2014 15:35 7,8 C 45 % 1008,1 hPa 0,0 l/m 0,0 km/h (0 Bft) SW 225 -3,4 C 16,1 C 0,0 km/h (0 Bft)
25.03.2014 15:40 7,4 C 44 % 1008,1 hPa 0,0 l/m 0,0 km/h (0 Bft) SW 225 -4,0 C 16,1 C 0,0 km/h (0 Bft)
25.03.2014 15:45 7,9 C 45 % 1007,8 hPa 0,0 l/m 0,0 km/h (0 Bft) SW 225 -3,3 C 16,1 C 0,0 km/h (0 Bft)
25.03.2014 15:50 9,0 C 45 % 1007,8 hPa 0,0 l/m 0,0 km/h (0 Bft) SW 225 -2,3 C 16,1 C 0,0 km/h (0 Bft)
25.03.2014 15:55 8,9 C 47 % 1007,8 hPa 0,0 l/m 0,0 km/h (0 Bft) SW 225 -1,8 C 16,1 C 0,0 km/h (0 Bft)
25.03.2014 16:00 7,9 C 47 % 1007,8 hPa 0,0 l/m 0,0 km/h (0 Bft) SW 225 -2,7 C 16,1 C 0,0 km/h (0 Bft)
25.03.2014 16:05 7,6 C 47 % 1008,2 hPa 0,0 l/m 0,0 km/h (0 Bft) SW 225 -3,0 C 16,1 C 0,0 km/h (0 Bft)
25.03.2014 16:10 7,5 C 47 % 1008,2 hPa 0,0 l/m 0,0 km/h (0 Bft) SW 225 -3,1 C 16,1 C 0,0 km/h (0 Bft)
25.03.2014 16:15 6,4 C 49 % 1008,2 hPa 0,0 l/m 0,0 km/h (0 Bft) SW 225 -3,5 C 16,1 C 0,0 km/h (0 Bft)
25.03.2014 16:20 5,8 C 50 % 1008,2 hPa 0,0 l/m 0,0 km/h (0 Bft) SW 225 -3,8 C 16,1 C 0,0 km/h (0 Bft)
25.03.2014 16:25 5,8 C 48 % 1008,6 hPa 0,0 l/m 0,0 km/h (0 Bft) SW 225 -4,3 C 16,1 C 0,0 km/h (0 Bft)
25.03.2014 16:30 5,4 C 49 % 1008,6 hPa 0,0 l/m 0,0 km/h (0 Bft) SW 225 -4,4 C 16,1 C 0,0 km/h (0 Bft)
25.03.2014 16:35 4,9 C 53 % 1008,6 hPa 0,0 l/m 0,0 km/h (0 Bft) SW 225 -3,9 C 16,1 C 0,0 km/h (0 Bft)
25.03.2014 16:40 4,5 C 54 % 1008,6 hPa 0,0 l/m 0,0 km/h (0 Bft) SW 225 -4,0 C 16,1 C 0,0 km/h (0 Bft)
25.03.2014 16:45 4,2 C 56 % 1007,9 hPa 0,0 l/m 0,0 km/h (0 Bft) SW 225 -3,8 C 16,1 C 0,0 km/h (0 Bft)
25.03.2014 16:50 3,9 C 57 % 1007,9 hPa 0,0 l/m 0,0 km/h (0 Bft) SW 225 -3,8 C 16,1 C 0,0 km/h (0 Bft)
25.03.2014 16:55 4,0 C 57 % 1007,9 hPa 0,0 l/m 0,0 km/h (0 Bft) SW 225 -3,7 C 16,1 C 0,0 km/h (0 Bft)
25.03.2014 17:00 3,8 C 58 % 1007,9 hPa 0,0 l/m 0,0 km/h (0 Bft) SW 225 -3,7 C 16,1 C 0,0 km/h (0 Bft)
25.03.2014 17:05 3,9 C 58 % 1007,9 hPa 0,0 l/m 0,0 km/h (0 Bft) SW 225 -3,6 C 16,1 C 0,0 km/h (0 Bft)
25.03.2014 17:10 3,7 C 58 % 1007,9 hPa 0,0 l/m 0,0 km/h (0 Bft) SW 225 -3,8 C 16,1 C 0,0 km/h (0 Bft)
25.03.2014 17:15 3,5 C 58 % 1007,9 hPa 0,0 l/m 0,0 km/h (0 Bft) SW 225 -4,0 C 16,1 C 0,0 km/h (0 Bft)
25.03.2014 17:20 3,3 C 59 % 1007,9 hPa 0,0 l/m 0,0 km/h (0 Bft) SW 225 -3,9 C 16,1 C 0,0 km/h (0 Bft)
25.03.2014 17:25 3,1 C 59 % 1007,9 hPa 0,0 l/m 0,0 km/h (0 Bft) SW 225 -4,1 C 16,1 C 0,0 km/h (0 Bft)
25.03.2014 17:30 2,9 C 62 % 1007,9 hPa 0,0 l/m 0,0 km/h (0 Bft) SW 225 -3,6 C 16,1 C 0,0 km/h (0 Bft)
25.03.2014 17:35 2,9 C 62 % 1007,9 hPa 0,0 l/m 0,0 km/h (0 Bft) SW 225 -3,6 C 16,1 C 0,0 km/h (0 Bft)
25.03.2014 17:40 2,7 C 63 % 1007,9 hPa 0,0 l/m 0,0 km/h (0 Bft) SW 225 -3,6 C 16,1 C 0,0 km/h (0 Bft)
25.03.2014 17:45 2,6 C 64 % 1007,8 hPa 0,0 l/m 0,0 km/h (0 Bft) SW 225 -3,5 C 16,1 C 0,0 km/h (0 Bft)
25.03.2014 17:50 2,7 C 64 % 1007,8 hPa 0,0 l/m 0,0 km/h (0 Bft) SW 225 -3,4 C 16,1 C 0,0 km/h (0 Bft)
25.03.2014 17:55 2,7 C 64 % 1007,8 hPa 0,0 l/m 0,0 km/h (0 Bft) SW 225 -3,4 C 16,1 C 0,0 km/h (0 Bft)
25.03.2014 18:00 2,9 C 65 % 1007,8 hPa 0,0 l/m 0,0 km/h (0 Bft) SW 225 -3,0 C 16,1 C 0,0 km/h (0 Bft)
25.03.2014 18:05 2,9 C 67 % 1008,0 hPa 0,0 l/m 0,0 km/h (0 Bft) SW 225 -2,6 C 16,1 C 0,0 km/h (0 Bft)
25.03.2014 18:10 2,8 C 68 % 1008,0 hPa 0,0 l/m 0,0 km/h (0 Bft) SW 225 -2,5 C 16,1 C 0,0 km/h (0 Bft)
25.03.2014 18:15 2,5 C 68 % 1008,0 hPa 0,0 l/m 0,0 km/h (0 Bft) SW 225 -2,8 C 16,1 C 0,0 km/h (0 Bft)
25.03.2014 18:20 2,2 C 71 % 1008,0 hPa 0,0 l/m 0,0 km/h (0 Bft) SW 225 -2,5 C 16,1 C 0,0 km/h (0 Bft)
25.03.2014 18:25 2,1 C 72 % 1008,0 hPa 0,0 l/m 0,0 km/h (0 Bft) SW 225 -2,4 C 16,1 C 0,0 km/h (0 Bft)
25.03.2014 18:30 1,6 C 72 % 1008,0 hPa 0,0 l/m 0,0 km/h (0 Bft) SW 225 -2,9 C 16,1 C 0,0 km/h (0 Bft)
25.03.2014 18:35 1,3 C 73 % 1008,0 hPa 0,0 l/m 0,0 km/h (0 Bft) SW 225 -3,0 C 16,1 C 0,0 km/h (0 Bft)
25.03.2014 18:40 1,1 C 74 % 1008,0 hPa 0,0 l/m 0,0 km/h (0 Bft) SW 225 -3,0 C 16,1 C 0,0 km/h (0 Bft)
25.03.2014 18:45 1,0 C 75 % 1008,0 hPa 0,0 l/m 0,0 km/h (0 Bft) SW 225 -2,9 C 16,1 C 0,0 km/h (0 Bft)
25.03.2014 18:50 0,7 C 76 % 1008,0 hPa 0,0 l/m 0,0 km/h (0 Bft) SW 225 -3,0 C 16,1 C 0,0 km/h (0 Bft)
25.03.2014 18:55 0,7 C 78 % 1008,0 hPa 0,0 l/m 0,0 km/h (0 Bft) SW 225 -2,7 C 16,1 C 0,0 km/h (0 Bft)
25.03.2014 19:00 0,5 C 79 % 1008,0 hPa 0,0 l/m 0,0 km/h (0 Bft) SW 225 -2,7 C 16,1 C 0,0 km/h (0 Bft)
25.03.2014 19:05 0,2 C 79 % 1008,2 hPa 0,0 l/m 0,0 km/h (0 Bft) SW 225 -3,0 C 16,1 C 0,0 km/h (0 Bft)
25.03.2014 19:10 0,2 C 82 % 1008,2 hPa 0,0 l/m 0,0 km/h (0 Bft) SW 225 -2,5 C 16,1 C 0,0 km/h (0 Bft)
25.03.2014 19:15 0,0 C 82 % 1008,2 hPa 0,0 l/m 0,0 km/h (0 Bft) SW 225 -2,7 C 16,1 C 0,0 km/h (0 Bft)
25.03.2014 19:20 -0,4 C 82 % 1008,2 hPa 0,0 l/m 0,0 km/h (0 Bft) SW 225 -3,1 C 16,1 C 0,0 km/h (0 Bft)
25.03.2014 19:25 -0,5 C 83 % 1008,2 hPa 0,0 l/m 0,0 km/h (0 Bft) SW 225 -3,0 C 16,1 C 0,0 km/h (0 Bft)
25.03.2014 19:30 -0,7 C 83 % 1008,2 hPa 0,0 l/m 0,0 km/h (0 Bft) SW 225 -3,2 C 16,1 C 0,0 km/h (0 Bft)
25.03.2014 19:35 -0,9 C 83 % 1008,2 hPa 0,0 l/m 0,0 km/h (0 Bft) SW 225 -3,4 C 16,1 C 0,0 km/h (0 Bft)
25.03.2014 19:40 -1,0 C 82 % 1008,2 hPa 0,0 l/m 0,0 km/h (0 Bft) SW 225 -3,7 C 16,1 C 0,0 km/h (0 Bft)
25.03.2014 19:45 -1,2 C 82 % 1008,4 hPa 0,0 l/m 0,0 km/h (0 Bft) SW 225 -3,9 C 16,1 C 0,0 km/h (0 Bft)
25.03.2014 19:50 -1,2 C 82 % 1008,4 hPa 0,0 l/m 0,0 km/h (0 Bft) SW 225 -3,9 C 16,1 C 0,0 km/h (0 Bft)
25.03.2014 19:55 -1,2 C 83 % 1008,4 hPa 0,0 l/m 0,0 km/h (0 Bft) SW 225 -3,7 C 16,1 C 0,0 km/h (0 Bft)
25.03.2014 20:00 -1,3 C 83 % 1008,4 hPa 0,0 l/m 0,0 km/h (0 Bft) SW 225 -3,8 C 16,1 C 0,0 km/h (0 Bft)
25.03.2014 20:05 -1,4 C 83 % 1008,6 hPa 0,0 l/m 0,0 km/h (0 Bft) SW 225 -3,9 C 16,1 C 0,0 km/h (0 Bft)
25.03.2014 20:10 -1,5 C 83 % 1008,6 hPa 0,0 l/m 0,0 km/h (0 Bft) SW 225 -4,0 C 16,1 C 0,0 km/h (0 Bft)
25.03.2014 20:15 -1,5 C 83 % 1008,6 hPa 0,0 l/m 0,0 km/h (0 Bft) SW 225 -4,0 C 16,1 C 0,0 km/h (0 Bft)
25.03.2014 20:20 -1,5 C 84 % 1008,6 hPa 0,0 l/m 0,0 km/h (0 Bft) SW 225 -3,8 C 16,1 C 0,0 km/h (0 Bft)
25.03.2014 20:25 -1,6 C 84 % 1008,6 hPa 0,0 l/m 0,0 km/h (0 Bft) SW 225 -3,9 C 16,1 C 0,0 km/h (0 Bft)
25.03.2014 20:30 -1,5 C 85 % 1008,5 hPa 0,0 l/m 0,0 km/h (0 Bft) SW 225 -3,7 C 16,1 C 0,0 km/h (0 Bft)
25.03.2014 20:35 -1,6 C 85 % 1008,5 hPa 0,0 l/m 0,0 km/h (0 Bft) SW 225 -3,8 C 16,1 C 0,0 km/h (0 Bft)
25.03.2014 20:40 -1,6 C 85 % 1008,5 hPa 0,0 l/m 0,0 km/h (0 Bft) SW 225 -3,8 C 16,1 C 0,0 km/h (0 Bft)
25.03.2014 20:45 -1,4 C 85 % 1008,5 hPa 0,0 l/m 0,0 km/h (0 Bft) SW 225 -3,6 C 16,1 C 0,0 km/h (0 Bft)
25.03.2014 20:50 -1,4 C 85 % 1008,5 hPa 0,0 l/m 0,0 km/h (0 Bft) SW 225 -3,6 C 16,1 C 0,0 km/h (0 Bft)
25.03.2014 20:55 -1,3 C 86 % 1008,5 hPa 0,0 l/m 0,0 km/h (0 Bft) SW 225 -3,3 C 16,1 C 0,0 km/h (0 Bft)
25.03.2014 21:00 -1,1 C 86 % 1008,5 hPa 0,0 l/m 0,0 km/h (0 Bft) SW 225 -3,1 C 16,1 C 0,0 km/h (0 Bft)
25.03.2014 21:05 -1,1 C 86 % 1008,5 hPa 0,0 l/m 0,0 km/h (0 Bft) SW 225 -3,1 C 16,1 C 0,0 km/h (0 Bft)
25.03.2014 21:10 -1,2 C 86 % 1008,4 hPa 0,0 l/m 0,0 km/h (0 Bft) SW 225 -3,2 C 16,1 C 0,0 km/h (0 Bft)
25.03.2014 21:15 -1,4 C 86 % 1008,4 hPa 0,0 l/m 0,0 km/h (0 Bft) SW 225 -3,4 C 16,1 C 0,0 km/h (0 Bft)
25.03.2014 21:20 -1,4 C 86 % 1008,4 hPa 0,0 l/m 0,0 km/h (0 Bft) SW 225 -3,4 C 16,1 C 0,0 km/h (0 Bft)
25.03.2014 21:25 -1,6 C 87 % 1008,4 hPa 0,0 l/m 0,0 km/h (0 Bft) SW 225 -3,5 C 16,1 C 0,0 km/h (0 Bft)
25.03.2014 21:30 -1,7 C 86 % 1008,4 hPa 0,0 l/m 0,0 km/h (0 Bft) SW 225 -3,7 C 16,1 C 0,0 km/h (0 Bft)
25.03.2014 21:35 -1,8 C 87 % 1008,4 hPa 0,0 l/m 0,0 km/h (0 Bft) SW 225 -3,7 C 16,1 C 0,0 km/h (0 Bft)
25.03.2014 21:40 -1,8 C 87 % 1008,4 hPa 0,0 l/m 0,0 km/h (0 Bft) SW 225 -3,7 C 16,1 C 0,0 km/h (0 Bft)
25.03.2014 21:45 -1,9 C 87 % 1008,4 hPa 0,0 l/m 0,0 km/h (0 Bft) SW 225 -3,8 C 16,1 C 0,0 km/h (0 Bft)
25.03.2014 21:50 -1,9 C 87 % 1008,5 hPa 0,0 l/m 0,0 km/h (0 Bft) SW 225 -3,8 C 16,1 C 0,0 km/h (0 Bft)
25.03.2014 21:55 -2,0 C 87 % 1008,5 hPa 0,0 l/m 0,0 km/h (0 Bft) SW 225 -3,9 C 16,1 C 0,0 km/h (0 Bft)
25.03.2014 22:00 -2,0 C 87 % 1008,5 hPa 0,0 l/m 0,0 km/h (0 Bft) SW 225 -3,9 C 16,1 C 0,0 km/h (0 Bft)
25.03.2014 22:05 -2,3 C 87 % 1008,5 hPa 0,0 l/m 0,0 km/h (0 Bft) SW 225 -4,2 C 16,1 C 0,0 km/h (0 Bft)
25.03.2014 22:10 -2,3 C 87 % 1008,3 hPa 0,0 l/m 0,0 km/h (0 Bft) SW 225 -4,2 C 16,1 C 0,0 km/h (0 Bft)
25.03.2014 22:15 -2,9 C 86 % 1008,3 hPa 0,0 l/m 0,0 km/h (0 Bft) SW 225 -4,9 C 16,1 C 0,0 km/h (0 Bft)
25.03.2014 22:20 -2,7 C 86 % 1008,3 hPa 0,0 l/m 0,0 km/h (0 Bft) SW 225 -4,7 C 16,1 C 0,0 km/h (0 Bft)
25.03.2014 22:25 -2,3 C 87 % 1008,3 hPa 0,0 l/m 0,0 km/h (0 Bft) SW 225 -4,2 C 16,1 C 0,0 km/h (0 Bft)
25.03.2014 22:30 -2,3 C 87 % 1008,5 hPa 0,0 l/m 0,0 km/h (0 Bft) SW 225 -4,2 C 16,1 C 0,0 km/h (0 Bft)
25.03.2014 22:35 -2,3 C 87 % 1008,5 hPa 0,0 l/m 0,0 km/h (0 Bft) SW 225 -4,2 C 16,1 C 0,0 km/h (0 Bft)
25.03.2014 22:40 -2,7 C 87 % 1008,5 hPa 0,0 l/m 0,0 km/h (0 Bft) SW 225 -4,6 C 16,1 C 0,0 km/h (0 Bft)
25.03.2014 22:45 -2,9 C 87 % 1008,5 hPa 0,0 l/m 0,0 km/h (0 Bft) SW 225 -4,8 C 16,1 C 0,0 km/h (0 Bft)
25.03.2014 22:50 -2,7 C 87 % 1008,3 hPa 0,0 l/m 0,0 km/h (0 Bft) SW 225 -4,6 C 16,1 C 0,0 km/h (0 Bft)
25.03.2014 22:55 -2,6 C 87 % 1008,3 hPa 0,0 l/m 0,0 km/h (0 Bft) SW 225 -4,5 C 16,1 C 0,0 km/h (0 Bft)
25.03.2014 23:00 -2,8 C 87 % 1008,3 hPa 0,0 l/m 0,0 km/h (0 Bft) SW 225 -4,7 C 16,1 C 0,0 km/h (0 Bft)
25.03.2014 23:05 -2,7 C 87 % 1008,3 hPa 0,0 l/m 0,0 km/h (0 Bft) SW 225 -4,6 C 16,1 C 0,0 km/h (0 Bft)
25.03.2014 23:10 -2,8 C 87 % 1008,3 hPa 0,0 l/m 0,0 km/h (0 Bft) SW 225 -4,7 C 16,1 C 0,0 km/h (0 Bft)
25.03.2014 23:15 -3,0 C 87 % 1008,3 hPa 0,0 l/m 0,0 km/h (0 Bft) SW 225 -4,9 C 16,1 C 0,0 km/h (0 Bft)
25.03.2014 23:20 -3,2 C 87 % 1008,3 hPa 0,0 l/m 0,0 km/h (0 Bft) SW 225 -5,0 C 16,1 C 0,0 km/h (0 Bft)
25.03.2014 23:25 -3,5 C 87 % 1008,3 hPa 0,0 l/m 0,0 km/h (0 Bft) SW 225 -5,3 C 16,1 C 0,0 km/h (0 Bft)
25.03.2014 23:30 -3,7 C 86 % 1008,1 hPa 0,0 l/m 0,0 km/h (0 Bft) SW 225 -5,7 C 16,1 C 0,0 km/h (0 Bft)
25.03.2014 23:35 -3,3 C 87 % 1008,1 hPa 0,0 l/m 0,0 km/h (0 Bft) SW 225 -5,1 C 16,1 C 0,0 km/h (0 Bft)
25.03.2014 23:40 -3,3 C 87 % 1008,1 hPa 0,0 l/m 0,0 km/h (0 Bft) SW 225 -5,1 C 16,1 C 0,0 km/h (0 Bft)
25.03.2014 23:45 -3,3 C 87 % 1008,1 hPa 0,0 l/m 0,0 km/h (0 Bft) SW 225 -5,1 C 16,1 C 0,0 km/h (0 Bft)
25.03.2014 23:50 -3,7 C 87 % 1008,1 hPa 0,0 l/m 0,0 km/h (0 Bft) SW 225 -5,5 C 16,1 C 0,0 km/h (0 Bft)
25.03.2014 23:55 -2,9 C 88 % 1008,1 hPa 0,0 l/m 0,0 km/h (0 Bft) SW 225 -4,6 C 16,1 C 0,0 km/h (0 Bft)
_ Min-Zeit 23:50 15:40 18:00 - 23:55 - - 23:30 23:55 23:55
Minimum _ -3,7 C 44 % 1007,8 hPa - 0,0 km/h (0 Bft) - - -5,7 C 16,1 C 0,0 km/h (0 Bft)
_ Max-Zeit 12:50 02:55 00:00 23:55 23:55 - - 08:35 23:55 23:55
Maximum _ 9,7 C 91 % 1012,0 hPa 0,0 l/m 0,0 km/h
SW (0 Bft)
- - 2,9 C 16,1 C 0,0 km/h
SW (0 Bft)
Durchschnitt _ 1,7 C 74 % 1009,6 hPa #0,0 l/m 0,0 km/h (0 Bft) - - - -2,8 C 16,1 C 0,0 km/h (0 Bft)